EN

Hourly Weather Kangayam

Today, 24 October, Saturday

Time Temperature Precipitation Wind Pressure Humidity
00:00 +26°C° 0 mm 6 mps 731 mmHg 69%
01:00 +26°C° 0 mm 6 mps 730 mmHg 69%
02:00 +26°C° 0 mm 5 mps 730 mmHg 68%
03:00 +25°C° 0 mm 5 mps 730 mmHg 70%
04:00 +25°C° 0 mm 5 mps 730 mmHg 73%
05:00 +25°C° 0 mm 5 mps 730 mmHg 75%
06:00 +26°C° 0 mm 5 mps 731 mmHg 71%
07:00 +27°C° 0 mm 5 mps 731 mmHg 67%
08:00 +28°C° 0 mm 5 mps 732 mmHg 63%
09:00 +30°C° 0 mm 5 mps 732 mmHg 55%
10:00 +32°C° 0 mm 4 mps 732 mmHg 48%
11:00 +34°C° 0 mm 4 mps 731 mmHg 40%
12:00 +35°C° 0 mm 4 mps 731 mmHg 38%
13:00 +35°C° 0 mm 5 mps 730 mmHg 37%
14:00 +36°C° 0 mm 5 mps 730 mmHg 35%
15:00 +34°C° 0 mm 5 mps 730 mmHg 39%
16:00 +33°C° 0 mm 5 mps 730 mmHg 43%
17:00 +32°C° 0 mm 5 mps 730 mmHg 48%
18:00 +30°C° 0 mm 5 mps 731 mmHg 52%
19:00 +29°C° 0 mm 5 mps 731 mmHg 56%
20:00 +28°C° 0 mm 6 mps 732 mmHg 60%
21:00 +27°C° 0 mm 6 mps 732 mmHg 63%
22:00 +26°C° 0 mm 5 mps 732 mmHg 66%
23:00 +26°C° 0 mm 5 mps 732 mmHg 68%

Tomorrow, 25 October, Sunday

Time Temperature Precipitation Wind Pressure Humidity
00:00 +26°C° 0 mm 5 mps 732 mmHg 70%
01:00 +25°C° 0 mm 5 mps 731 mmHg 71%
02:00 +25°C° 0 mm 5 mps 731 mmHg 73%
03:00 +25°C° 0 mm 4 mps 731 mmHg 74%
04:00 +23°C° 0 mm 4 mps 731 mmHg 75%
05:00 +23°C° 0 mm 4 mps 731 mmHg 76%
06:00 +26°C° 0 mm 4 mps 732 mmHg 71%
07:00 +27°C° 0 mm 3 mps 733 mmHg 67%
08:00 +28°C° 0 mm 3 mps 733 mmHg 62%
09:00 +30°C° 0 mm 3 mps 733 mmHg 56%
10:00 +31°C° 0 mm 3 mps 733 mmHg 50%
11:00 +34°C° 0 mm 2 mps 732 mmHg 44%
12:00 +35°C° 0 mm 3 mps 732 mmHg 41%
13:00 +35°C° 0 mm 3 mps 731 mmHg 38%
14:00 +36°C° 0 mm 3 mps 730 mmHg 34%
15:00 +35°C° 0 mm 3 mps 730 mmHg 39%
16:00 +34°C° 0 mm 3 mps 730 mmHg 43%
17:00 +33°C° 0 mm 4 mps 730 mmHg 47%
18:00 +30°C° 0 mm 4 mps 731 mmHg 52%
19:00 +29°C° 0 mm 4 mps 732 mmHg 56%
20:00 +28°C° 0 mm 4 mps 732 mmHg 61%
21:00 +28°C° 0 mm 3 mps 732 mmHg 64%
22:00 +27°C° 0 mm 3 mps 732 mmHg 67%
23:00 +26°C° 0 mm 2 mps 732 mmHg 71%

Day after tomorrow, 26 October, Monday

Time Temperature Precipitation Wind Pressure Humidity
00:00 +26°C° 0 mm 2 mps 732 mmHg 73%
01:00 +26°C° 0 mm 1 mps 731 mmHg 75%
02:00 +25°C° 0 mm 1 mps 731 mmHg 78%
03:00 +25°C° 0 mm 1 mps 731 mmHg 78%
04:00 +25°C° 0 mm 2 mps 731 mmHg 78%
05:00 +25°C° 0 mm 2 mps 731 mmHg 79%
06:00 +26°C° 0 mm 2 mps 732 mmHg 75%
07:00 +27°C° 0 mm 1 mps 733 mmHg 70%
08:00 +28°C° 0 mm 1 mps 733 mmHg 66%
09:00 +29°C° 0 mm 1 mps 733 mmHg 61%
10:00 +31°C° 0 mm 2 mps 733 mmHg 55%
11:00 +34°C° 0 mm 2 mps 732 mmHg 50%
12:00 +34°C° 0 mm 2 mps 732 mmHg 48%
13:00 +35°C° 0 mm 2 mps 731 mmHg 45%
14:00 +36°C° 0 mm 2 mps 730 mmHg 43%
15:00 +35°C° 0 mm 2 mps 730 mmHg 46%
16:00 +34°C° 0 mm 3 mps 730 mmHg 50%
17:00 +33°C° 0 mm 3 mps 730 mmHg 54%
18:00 +31°C° 1.6 mm 2 mps 731 mmHg 62%
19:00 +29°C° 1.6 mm 2 mps 731 mmHg 69%
20:00 +28°C° 1.6 mm 1 mps 732 mmHg 77%
21:00 +27°C° 1.2 mm 2 mps 732 mmHg 78%
22:00 +27°C° 1.2 mm 2 mps 732 mmHg 80%
23:00 +27°C° 1.2 mm 2 mps 732 mmHg 81%

, 27 October, Tuesday

Time Temperature Precipitation Wind Pressure Humidity
00:00 +26°C° 0.2 mm 2 mps 731 mmHg 82%
01:00 +26°C° 0.2 mm 2 mps 731 mmHg 84%
02:00 +25°C° 0.2 mm 2 mps 730 mmHg 86%
03:00 +25°C° 0 mm 1 mps 730 mmHg 86%
04:00 +25°C° 0 mm 1 mps 730 mmHg 86%
05:00 +25°C° 0 mm 1 mps 730 mmHg 87%
06:00 +26°C° 0 mm 1 mps 731 mmHg 82%
07:00 +25°C° 0 mm 0 mps 732 mmHg 77%
08:00 +26°C° 0 mm 0 mps 732 mmHg 72%
09:00 +30°C° 0.1 mm 1 mps 732 mmHg 66%
10:00 +31°C° 0.1 mm 1 mps 732 mmHg 61%
11:00 +32°C° 0.1 mm 1 mps 732 mmHg 55%
12:00 +33°C° 0 mm 1 mps 731 mmHg 53%
13:00 +34°C° 0 mm 2 mps 730 mmHg 51%
14:00 +35°C° 0 mm 2 mps 729 mmHg 49%
15:00 +34°C° 0 mm 2 mps 730 mmHg 52%
16:00 +34°C° 0 mm 2 mps 730 mmHg 55%
17:00 +32°C° 0 mm 2 mps 730 mmHg 58%
18:00 +31°C° 0.4 mm 2 mps 731 mmHg 63%
19:00 +29°C° 0.4 mm 2 mps 731 mmHg 69%
20:00 +28°C° 0.4 mm 2 mps 732 mmHg 75%
21:00 +28°C° 0.6 mm 2 mps 732 mmHg 77%
22:00 +27°C° 0.6 mm 2 mps 732 mmHg 79%
23:00 +27°C° 0.6 mm 2 mps 732 mmHg 81%

27 October, Tuesday

Time Temperature Precipitation Wind Pressure Humidity
00:00 +26°C° 0.2 mm 2 mps 731 mmHg 82%
01:00 +26°C° 0.2 mm 2 mps 731 mmHg 84%
02:00 +25°C° 0.2 mm 2 mps 730 mmHg 86%
03:00 +25°C° 0 mm 1 mps 730 mmHg 86%
04:00 +25°C° 0 mm 1 mps 730 mmHg 86%
05:00 +25°C° 0 mm 1 mps 730 mmHg 87%
06:00 +26°C° 0 mm 1 mps 731 mmHg 82%
07:00 +25°C° 0 mm 0 mps 732 mmHg 77%
08:00 +26°C° 0 mm 0 mps 732 mmHg 72%
09:00 +30°C° 0.1 mm 1 mps 732 mmHg 66%
10:00 +31°C° 0.1 mm 1 mps 732 mmHg 61%
11:00 +32°C° 0.1 mm 1 mps 732 mmHg 55%
12:00 +33°C° 0 mm 1 mps 731 mmHg 53%
13:00 +34°C° 0 mm 2 mps 730 mmHg 51%
14:00 +35°C° 0 mm 2 mps 729 mmHg 49%
15:00 +34°C° 0 mm 2 mps 730 mmHg 52%
16:00 +34°C° 0 mm 2 mps 730 mmHg 55%
17:00 +32°C° 0 mm 2 mps 730 mmHg 58%
18:00 +31°C° 0.4 mm 2 mps 731 mmHg 63%
19:00 +29°C° 0.4 mm 2 mps 731 mmHg 69%
20:00 +28°C° 0.4 mm 2 mps 732 mmHg 75%
21:00 +28°C° 0.6 mm 2 mps 732 mmHg 77%
22:00 +27°C° 0.6 mm 2 mps 732 mmHg 79%
23:00 +27°C° 0.6 mm 2 mps 732 mmHg 81%

28 October, Wednesday

Time Temperature Precipitation Wind Pressure Humidity
00:00 +26°C° 0.2 mm 2 mps 731 mmHg 82%
01:00 +26°C° 0.2 mm 1 mps 731 mmHg 83%
02:00 +26°C° 0.2 mm 1 mps 730 mmHg 84%
03:00 +26°C° 0.1 mm 1 mps 730 mmHg 85%
04:00 +24°C° 0.1 mm 0 mps 731 mmHg 86%
05:00 +23°C° 0.1 mm 0 mps 731 mmHg 87%
06:00 +26°C° 0.1 mm 1 mps 731 mmHg 83%
07:00 +27°C° 0.1 mm 1 mps 732 mmHg 79%
08:00 +28°C° 0.1 mm 1 mps 733 mmHg 75%
09:00 +29°C° 0 mm 2 mps 732 mmHg 69%
10:00 +30°C° 0 mm 2 mps 732 mmHg 62%
11:00 +32°C° 0 mm 2 mps 732 mmHg 55%
12:00 +32°C° 0 mm 2 mps 731 mmHg 52%
13:00 +34°C° 0 mm 2 mps 730 mmHg 50%
14:00 +34°C° 0 mm 2 mps 730 mmHg 47%
15:00 +34°C° 0 mm 3 mps 730 mmHg 50%
16:00 +33°C° 0 mm 3 mps 730 mmHg 54%
17:00 +31°C° 0 mm 3 mps 730 mmHg 57%
18:00 +30°C° 0 mm 2 mps 731 mmHg 59%
19:00 +29°C° 0 mm 2 mps 731 mmHg 61%
20:00 +28°C° 0 mm 1 mps 732 mmHg 63%
21:00 +28°C° 0 mm 1 mps 732 mmHg 66%
22:00 +27°C° 0 mm 1 mps 732 mmHg 69%
23:00 +27°C° 0 mm 1 mps 732 mmHg 72%

29 October, Thursday

Time Temperature Precipitation Wind Pressure Humidity
00:00 +26°C° 0 mm 1 mps 732 mmHg 73%
01:00 +26°C° 0 mm 1 mps 731 mmHg 74%
02:00 +26°C° 0 mm 1 mps 731 mmHg 75%
03:00 +25°C° 0 mm 1 mps 731 mmHg 77%
04:00 +25°C° 0 mm 1 mps 731 mmHg 79%
05:00 +25°C° 0 mm 1 mps 731 mmHg 80%
06:00 +26°C° 0 mm 1 mps 732 mmHg 77%
07:00 +27°C° 0 mm 1 mps 732 mmHg 74%
08:00 +28°C° 0 mm 1 mps 733 mmHg 71%
09:00 +29°C° 0 mm 1 mps 733 mmHg 65%
10:00 +31°C° 0 mm 1 mps 733 mmHg 59%
11:00 +32°C° 0 mm 1 mps 733 mmHg 53%
12:00 +34°C° 0 mm 2 mps 732 mmHg 52%
13:00 +34°C° 0 mm 2 mps 731 mmHg 50%
14:00 +35°C° 0 mm 2 mps 730 mmHg 48%
15:00 +34°C° 0 mm 2 mps 730 mmHg 51%
16:00 +32°C° 0 mm 2 mps 731 mmHg 53%
17:00 +32°C° 0 mm 2 mps 731 mmHg 56%
18:00 +31°C° 0.5 mm 2 mps 731 mmHg 61%
19:00 +29°C° 0.5 mm 2 mps 732 mmHg 67%
20:00 +28°C° 0.5 mm 2 mps 732 mmHg 72%
21:00 +27°C° 0.8 mm 2 mps 732 mmHg 76%
22:00 +27°C° 0.8 mm 2 mps 732 mmHg 80%
23:00 +26°C° 0.8 mm 3 mps 732 mmHg 84%
Show more

We Need Your Consent

Meteoprog and our Service Providers may store and access personal data such as cookies, device identifiers or other similar technologies on your device and process such data to personalise content and ads, as well as provide social media features and to analyse the traffic.

  • Store and/or access information on your device

    Cookies, device identifiers or other information can be stored or accessed on your device for the purposes indicated above.

  • Personalised ads and content, ad and content measurement, audience insights, and products development

    Ads and content can be personalised based on a profile. More data can be added to better personalise ads and content. Ad and content performance can be measured. Insights about the audience who saw the ads and content can be derived. Such data can be used to develop or improve user’s experience, systems and software.

By clicking ‘I Agree’ you will allow the use of indicated cookies, device identifiers, web beacons or other similar technologies. Your settings can be changed in the browser on your device.

For certain purposes, legitimate interests may be relied on, rather than consent. You can read more about this in our Privacy and Cookie Policy.